This is the latest recevied weather packets stored in our database for station/object WD9U. If no packets are shown the sender has not sent any weather packets the latest 10 day(s).
| Time | Temp. | Humidity | Pressure | Rain* | Wind** | Luminosity | Snow |
|---|---|---|---|---|---|---|---|
| 1778104872 | 6.67° C | 46% | 1014.4 hPa | 0 mm | - | 137 W/m² | - |
| 1778104512 | 6.67° C | 46% | 1014.3 hPa | 0 mm | - | 108 W/m² | - |
| 1778104151 | 6.67° C | 46% | 1014.4 hPa | 0 mm | - | 134 W/m² | - |
| 1778103912 | 6.67° C | 47% | 1014.3 hPa | 0 mm | - | 138 W/m² | - |
| 1778103789 | 6.67° C | 46% | 1014.4 hPa | 0 mm | - | 114 W/m² | - |
| 1778103429 | 6.67° C | 45% | 1014.3 hPa | 0 mm | - | 90 W/m² | - |
| 1778103069 | 6.67° C | 43% | 1014.4 hPa | 0 mm | - | 126 W/m² | - |
| 1778102709 | 6.67° C | 43% | 1014.3 hPa | 0 mm | - | 177 W/m² | - |
| 1778102349 | 6.67° C | 44% | 1014.4 hPa | 0 mm | - | 197 W/m² | - |
| 1778101989 | 6.67° C | 44% | 1014.5 hPa | 0 mm | - | 180 W/m² | - |
| 1778101629 | 6.67° C | 44% | 1014.3 hPa | 0 mm | - | 200 W/m² | - |
| 1778101513 | 6.67° C | 44% | 1014.3 hPa | 0 mm | - | 224 W/m² | - |
| 1778101269 | 6.67° C | 44% | 1014.4 hPa | 0 mm | - | 260 W/m² | - |
| 1778100908 | 6.67° C | 44% | 1014.5 hPa | 0 mm | - | 243 W/m² | - |
| 1778100557 | 6.67° C | 44% | 1014.4 hPa | 0 mm | - | 201 W/m² | - |
| 1778100318 | 6.67° C | 44% | 1014.5 hPa | 0 mm | - | 217 W/m² | - |
| 1778100196 | 6.67° C | 45% | 1014.5 hPa | 0 mm | - | 210 W/m² | - |
| 1778099836 | 6.67° C | 46% | 1014.7 hPa | 0 mm | - | 214 W/m² | - |
| 1778099476 | 6.67° C | 46% | 1014.6 hPa | 0 mm | - | 304 W/m² | - |
| 1778099116 | 6.67° C | 45% | 1014.7 hPa | 0 mm | - | 256 W/m² | - |
| 1778098756 | 6.67° C | 45% | 1014.7 hPa | 0 mm | - | 228 W/m² | - |
| 1778098396 | 6.11° C | 45% | 1014.7 hPa | 0 mm | - | 227 W/m² | - |
| 1778098036 | 6.11° C | 47% | 1014.7 hPa | 0 mm | - | 217 W/m² | - |
| 1778097918 | 6.11° C | 47% | 1014.8 hPa | 0 mm | - | 211 W/m² | - |
| 1778097676 | 6.11° C | 46% | 1014.9 hPa | 0 mm | - | 220 W/m² | - |
* Rain latest hour (hover to see other rain measurements)
** Current wind speed in m/s (hover to see current wind gust speed)